DW2213 Weather Reports


time (UTC)temp
C
wind
direction
speed
KPH
gust
KPH
rain 1hr
cm
rain 24hr
cm
rain mn
cm
humidity
%
barometer
mb
20260504050304 17 148 1.6 4.8 0.00 0.08 0.00 88 1010.7
20260504045804 17 148 0.0 0.0 0.00 0.08 0.00 88 1010.8
20260504045304 17 148 0.0 1.6 0.00 0.08 0.00 88 1010.8
20260504044805 17 148 1.6 3.2 0.00 0.08 0.00 88 1010.7
20260504044304 17 148 0.0 3.2 0.00 0.08 0.00 88 1010.8
20260504043804 17 148 0.0 0.0 0.00 0.08 0.00 88 1010.8
20260504043305 17 148 0.0 0.0 0.00 0.08 0.00 88 1010.8
20260504042804 17 148 0.0 0.0 0.00 0.08 0.00 88 1010.8
20260504041804 17 148 1.6 4.8 0.00 0.08 0.00 88 1011.0
20260504041304 17 148 0.0 0.0 0.00 0.08 0.00 88 1011.0
20260504040804 17 148 0.0 0.0 0.00 0.08 0.00 88 1011.0
20260504040304 17 148 0.0 0.0 0.00 0.08 0.00 88 1010.9
20260504035804 17 148 0.0 0.0 0.00 0.08 0.00 88 1011.1
20260504035305 17 148 0.0 0.0 0.00 0.08 0.00 88 1011.1
20260504034304 17 148 0.0 0.0 0.00 0.08 0.00 88 1011.3
20260504033804 17 148 0.0 0.0 0.00 0.08 0.00 88 1011.4
20260504033304 17 148 0.0 3.2 0.00 0.08 0.00 88 1011.5
20260504032804 17 148 0.0 3.2 0.00 0.08 0.00 88 1011.6
20260504032304 17 148 0.0 3.2 0.00 0.08 0.00 88 1011.6
20260504031804 17 148 0.0 1.6 0.00 0.08 0.00 88 1011.7
20260504031304 17 148 0.0 3.2 0.00 0.08 0.00 87 1011.7
20260504025804 17 148 0.0 0.0 0.00 0.08 0.00 87 1011.9
20260504025304 17 148 0.0 3.2 0.00 0.08 0.00 87 1011.9
20260504024304 17 148 0.0 3.2 0.00 0.08 0.00 86 1012.0
20260504023804 18 148 0.0 4.8 0.00 0.10 0.00 86 1011.9
20260504023304 18 148 3.2 8.0 0.00 0.10 0.00 86 1011.9
20260504022804 18 148 0.0 3.2 0.00 0.10 0.00 86 1011.8
20260504022305 18 148 1.6 3.2 0.00 0.13 0.00 86 1011.8
20260504021804 18 148 0.0 0.0 0.00 0.13 0.00 86 1011.8
20260504021304 18 148 0.0 0.0 0.00 0.13 0.00 86 1011.8
20260504020804 18 148 0.0 0.0 0.00 0.13 0.00 86 1011.8
20260504020304 18 148 0.0 0.0 0.00 0.13 0.00 86 1011.8
20260504015804 17 148 0.0 0.0 0.00 0.15 0.00 86 1011.8
20260504014804 18 148 1.6 3.2 0.00 0.15 0.00 86 1011.8
20260504014304 18 148 1.6 3.2 0.00 0.15 0.00 86 1011.8
20260504013304 18 148 0.0 3.2 0.00 0.15 0.00 86 1011.8
20260504012805 18 148 1.6 3.2 0.00 0.15 0.00 86 1011.7
20260504012304 18 148 1.6 3.2 0.00 0.15 0.00 85 1011.7
20260504011804 18 148 0.0 3.2 0.00 0.15 0.00 85 1011.7
20260504011304 18 148 0.0 3.2 0.00 0.15 0.00 84 1011.8
20260504010804 18 148 0.0 3.2 0.00 0.15 0.00 84 1011.7
20260504010304 18 148 1.6 3.2 0.00 0.15 0.00 84 1011.7
20260504005804 18 148 0.0 1.6 0.00 0.15 0.00 83 1011.6
20260504005305 18 148 1.6 3.2 0.00 0.15 0.00 82 1011.6
20260504004805 18 148 1.6 4.8 0.00 0.15 0.00 81 1011.6
20260504003804 18 147 1.6 4.8 0.00 0.15 0.00 81 1011.6
20260504003304 18 147 1.6 4.8 0.00 0.15 0.00 81 1011.7
20260504002804 18 147 1.6 4.8 0.00 0.15 0.00 80 1011.8
20260504002304 18 147 1.6 3.2 0.00 0.15 0.00 80 1011.9
20260504001804 18 147 1.6 1.6 0.00 0.15 0.00 80 1011.9
20260504001304 18 147 0.0 0.0 0.00 0.15 0.00 80 1012.0
20260504000803 18 147 0.0 0.0 0.00 0.15 0.00 80 1012.0
20260504000304 18 147 0.0 1.6 0.00 0.15 0.00 81 1012.1
20260503235804 18 147 3.2 4.8 0.00 0.15 0.00 81 1012.2
20260503235305 18 147 0.0 0.0 0.00 0.15 0.00 80 1012.3
20260503234804 18 147 0.0 4.8 0.00 0.15 0.00 80 1012.3
20260503233804 18 147 0.0 3.2 0.00 0.15 0.00 81 1012.4
20260503232804 18 148 0.0 0.0 0.00 0.15 0.00 81 1012.5
20260503232305 18 148 0.0 0.0 0.00 0.15 0.00 81 1012.5
20260503231805 18 148 0.0 0.0 0.00 0.15 0.00 81 1012.6
20260503231304 18 148 0.0 0.0 0.00 0.15 0.00 81 1012.7
20260503230804 18 148 0.0 0.0 0.00 0.15 0.00 80 1012.7
20260503225804 18 148 0.0 0.0 0.00 0.15 0.00 80 1012.7
20260503225305 18 148 0.0 0.0 0.00 0.15 0.00 80 1012.7
20260503224804 18 148 0.0 0.0 0.00 0.15 0.00 80 1012.6
20260503224304 18 148 0.0 0.0 0.00 0.15 0.00 80 1012.6
20260503223804 18 148 0.0 0.0 0.00 0.15 0.00 80 1012.6
20260503223304 18 148 0.0 0.0 0.00 0.15 0.00 80 1012.6
20260503222804 18 148 0.0 0.0 0.00 0.15 0.00 80 1012.6
20260503222304 18 148 0.0 8.0 0.00 0.15 0.00 80 1012.6
20260503221804 18 147 0.0 3.2 0.00 0.15 0.00 80 1012.6
20260503221304 18 147 0.0 4.8 0.00 0.15 0.00 80 1012.7
20260503220818 18 148 3.2 4.8 0.00 0.15 0.00 80 1012.6
20260503220305 18 147 1.6 4.8 0.00 0.15 0.00 80 1012.7
20260503215804 18 148 0.0 3.2 0.00 0.15 0.15 80 1012.4
20260503215304 18 148 3.2 8.0 0.00 0.15 0.15 80 1012.5
20260503214804 18 148 3.2 4.8 0.00 0.15 0.15 80 1012.6
20260503214304 18 147 0.0 3.2 0.00 0.15 0.15 80 1012.6
20260503213804 18 147 0.0 0.0 0.00 0.15 0.15 79 1012.7
20260503213304 18 147 0.0 0.0 0.00 0.15 0.15 79 1012.8
20260503212804 18 147 0.0 1.6 0.00 0.15 0.15 79 1013.1
20260503212305 18 147 1.6 3.2 0.00 0.15 0.15 79 1013.1
20260503211804 18 147 3.2 4.8 0.00 0.15 0.15 79 1013.0
20260503210804 18 147 3.2 8.0 0.00 0.15 0.15 78 1013.0
20260503210304 18 134 4.8 8.0 0.00 0.15 0.15 79 1013.0
20260503205804 18 146 3.2 4.8 0.00 0.15 0.15 78 1012.9
20260503204804 19 146 4.8 8.0 0.00 0.15 0.15 78 1012.7
20260503204304 19 146 4.8 8.0 0.00 0.15 0.15 78 1012.7
20260503203804 18 146 4.8 8.0 0.00 0.15 0.15 78 1012.6
20260503203304 18 146 3.2 8.0 0.00 0.15 0.15 78 1012.5
20260503202804 18 146 3.2 4.8 0.00 0.15 0.15 78 1012.5
20260503202304 18 146 1.6 4.8 0.00 0.15 0.15 78 1012.4
20260503201804 18 146 1.6 3.2 0.00 0.15 0.15 78 1012.3
20260503201304 18 146 1.6 4.8 0.00 0.15 0.15 78 1012.3
20260503200803 18 146 1.6 4.8 0.00 0.15 0.15 77 1012.2
20260503195804 18 147 1.6 4.8 0.00 0.15 0.15 77 1012.1
20260503195304 18 146 3.2 8.0 0.00 0.15 0.15 77 1012.0
20260503194803 18 146 0.0 0.0 0.00 0.15 0.15 77 1011.8
20260503193803 18 146 3.2 8.0 0.00 0.15 0.15 77 1011.6
20260503193304 18 146 3.2 4.8 0.00 0.15 0.15 77 1011.6
20260503192804 18 143 8.0 11.3 0.00 0.15 0.15 77 1011.5
20260503192305 18 143 6.4 9.7 0.00 0.15 0.15 77 1011.3
20260503191804 19 106 9.7 12.9 0.00 0.15 0.15 78 1011.2
20260503191304 19 104 8.0 12.9 0.00 0.15 0.15 79 1011.3
20260503190804 19 125 8.0 12.9 0.00 0.15 0.15 79 1011.4
20260503190303 19 125 6.4 11.3 0.00 0.15 0.15 78 1011.4
20260503185804 19 155 3.2 8.0 0.00 0.15 0.15 78 1011.7
20260503184804 19 155 6.4 9.7 0.00 0.15 0.15 78 1011.9
20260503184303 19 155 4.8 11.3 0.00 0.15 0.15 78 1011.7
20260503183803 19 143 8.0 11.3 0.00 0.15 0.15 78 1011.5
20260503183304 20 122 6.4 12.9 0.00 0.15 0.15 78 1011.5
20260503182804 20 112 8.0 12.9 0.00 0.15 0.15 78 1011.5
20260503182305 20 149 8.0 11.3 0.00 0.15 0.15 78 1011.4
20260503181804 20 149 8.0 11.3 0.00 0.15 0.15 77 1011.4
20260503181303 20 147 8.0 12.9 0.00 0.15 0.15 77 1011.5
20260503180804 20 119 8.0 11.3 0.00 0.15 0.15 77 1011.4
20260503175804 20 135 4.8 11.3 0.00 0.15 0.15 77 1011.2
20260503174804 20 102 8.0 9.7 0.00 0.15 0.15 76 1011.3
20260503174304 20 90 8.0 9.7 0.00 0.15 0.15 76 1011.3
20260503173804 20 115 6.4 11.3 0.00 0.15 0.15 75 1011.2
20260503173303 20 73 4.8 12.9 0.00 0.15 0.15 74 1011.4
20260503172305 20 108 8.0 14.5 0.00 0.15 0.15 73 1011.4
20260503140305 21 31 9.7 14.5 0.00 0.15 0.15 69 1012.5
20260503131305 22 30 8.0 16.1 0.00 0.15 0.15 65 1012.7
20260503130804 22 59 8.0 12.9 0.00 0.15 0.15 64 1012.7
20260503110805 21 94 8.0 12.9 0.00 0.15 0.15 74 1013.7
20260503110305 21 115 8.0 11.3 0.00 0.15 0.15 75 1013.7
20260503081304 18 126 3.2 4.8 0.08 0.18 0.15 88 1014.6
20260503080805 18 125 1.6 4.8 0.05 0.15 0.13 88 1014.6
20260503080304 18 125 1.6 8.0 0.05 0.15 0.13 88 1014.4
20260503072804 18 130 3.2 8.0 0.00 0.10 0.08 86 1014.3
20260503071804 18 108 3.2 8.0 0.00 0.10 0.08 86 1014.1
20260503070805 18 105 1.6 3.2 0.00 0.10 0.08 87 1014.1